Year,Month,Day,Hour,Minute,Value (Times are PST for temperature in C)
2010,08,14,00,00,18.70
2010,08,14,00,01,18.70
2010,08,14,00,02,18.60
2010,08,14,00,03,18.50
2010,08,14,00,04,18.50
2010,08,14,00,05,18.50
2010,08,14,00,06,18.40
2010,08,14,00,07,18.40
2010,08,14,00,08,18.30
2010,08,14,00,09,18.30
2010,08,14,00,10,18.20
2010,08,14,00,11,18.20
2010,08,14,00,12,18.20
2010,08,14,00,13,18.20
2010,08,14,00,14,18.20
2010,08,14,00,15,18.20
2010,08,14,00,16,18.20
2010,08,14,00,17,18.20
2010,08,14,00,18,18.20
2010,08,14,00,19,18.20
2010,08,14,00,20,18.10
2010,08,14,00,21,18.10
2010,08,14,00,22,18.00
2010,08,14,00,23,17.90
2010,08,14,00,24,17.90
2010,08,14,00,25,17.90
2010,08,14,00,26,17.90
2010,08,14,00,27,17.90
2010,08,14,00,28,18.00
2010,08,14,00,29,18.10
2010,08,14,00,30,18.10
2010,08,14,00,31,18.10
2010,08,14,00,32,18.10
2010,08,14,00,33,18.20
2010,08,14,00,34,18.20
2010,08,14,00,35,18.30
2010,08,14,00,36,18.30
2010,08,14,00,37,18.30
2010,08,14,00,38,18.30
2010,08,14,00,39,18.30
2010,08,14,00,40,18.30
2010,08,14,00,41,18.30
2010,08,14,00,42,18.30
2010,08,14,00,43,18.30
2010,08,14,00,44,18.50
2010,08,14,00,45,18.60
2010,08,14,00,46,18.70
2010,08,14,00,47,18.80
2010,08,14,00,48,18.80
2010,08,14,00,49,18.80
2010,08,14,00,50,18.80
2010,08,14,00,51,18.80
2010,08,14,00,52,18.80
2010,08,14,00,53,18.90
2010,08,14,00,54,18.90
2010,08,14,00,55,18.90
2010,08,14,00,56,18.90
2010,08,14,00,57,18.90
2010,08,14,00,58,18.90
2010,08,14,00,59,19.00
2010,08,14,01,00,19.10
2010,08,14,01,01,19.10
2010,08,14,01,02,19.10
2010,08,14,01,03,19.20
2010,08,14,01,04,19.30
2010,08,14,01,05,19.30
2010,08,14,01,06,19.10
2010,08,14,01,07,19.00
2010,08,14,01,08,18.90
2010,08,14,01,09,18.80
2010,08,14,01,10,18.80
2010,08,14,01,11,18.90
2010,08,14,01,12,18.90
2010,08,14,01,13,18.90
2010,08,14,01,14,18.90
2010,08,14,01,15,18.90
2010,08,14,01,16,18.90
2010,08,14,01,17,19.00
2010,08,14,01,18,19.10
2010,08,14,01,19,19.10
2010,08,14,01,20,19.10
2010,08,14,01,21,19.10
2010,08,14,01,22,19.10
2010,08,14,01,23,19.10
2010,08,14,01,24,19.10
2010,08,14,01,25,19.10
2010,08,14,01,26,19.10
2010,08,14,01,27,19.10
2010,08,14,01,28,19.10
2010,08,14,01,29,19.10
2010,08,14,01,30,19.20
2010,08,14,01,31,19.30
2010,08,14,01,32,19.30
2010,08,14,01,33,19.40
2010,08,14,01,34,19.50
2010,08,14,01,35,19.60
2010,08,14,01,36,19.70
2010,08,14,01,37,19.70
2010,08,14,01,38,19.80
2010,08,14,01,39,19.80
2010,08,14,01,40,19.90
2010,08,14,01,41,19.90
2010,08,14,01,42,19.90
2010,08,14,01,43,19.90
2010,08,14,01,44,19.90
2010,08,14,01,45,19.90
2010,08,14,01,46,19.90
2010,08,14,01,47,19.80
2010,08,14,01,48,19.80
2010,08,14,01,49,19.80
2010,08,14,01,50,19.70
2010,08,14,01,51,19.70
2010,08,14,01,52,19.60
2010,08,14,01,53,19.60
2010,08,14,01,54,19.50
2010,08,14,01,55,19.40
2010,08,14,01,56,19.40
2010,08,14,01,57,19.40
2010,08,14,01,58,19.30
2010,08,14,01,59,19.30
2010,08,14,02,00,19.20
2010,08,14,02,01,19.20
2010,08,14,02,02,19.10
2010,08,14,02,03,19.10
2010,08,14,02,04,19.10
2010,08,14,02,05,19.10
2010,08,14,02,06,19.10
2010,08,14,02,07,19.00
2010,08,14,02,08,18.90
2010,08,14,02,09,18.80
2010,08,14,02,10,18.60
2010,08,14,02,11,18.50
2010,08,14,02,12,18.40
2010,08,14,02,13,18.30
2010,08,14,02,14,18.30
2010,08,14,02,15,18.30
2010,08,14,02,16,18.30
2010,08,14,02,17,18.30
2010,08,14,02,18,18.30
2010,08,14,02,19,18.30
2010,08,14,02,20,18.30
2010,08,14,02,21,18.30
2010,08,14,02,22,18.20
2010,08,14,02,23,18.30
2010,08,14,02,24,18.30
2010,08,14,02,25,18.40
2010,08,14,02,26,18.50
2010,08,14,02,27,18.50
2010,08,14,02,28,18.60
2010,08,14,02,29,18.70
2010,08,14,02,30,18.80
2010,08,14,02,31,18.90
2010,08,14,02,32,18.90
2010,08,14,02,33,19.00
2010,08,14,02,34,19.10
2010,08,14,02,35,19.10
2010,08,14,02,36,19.20
2010,08,14,02,37,19.20
2010,08,14,02,38,19.10
2010,08,14,02,39,19.10
2010,08,14,02,40,19.10
2010,08,14,02,41,18.90
2010,08,14,02,42,18.90
2010,08,14,02,43,18.90
2010,08,14,02,44,18.90
2010,08,14,02,45,18.90
2010,08,14,02,46,18.90
2010,08,14,02,47,18.90
2010,08,14,02,48,18.90
2010,08,14,02,49,18.90
2010,08,14,02,50,18.80
2010,08,14,02,51,18.80
2010,08,14,02,52,18.70
2010,08,14,02,53,18.70
2010,08,14,02,54,18.60
2010,08,14,02,55,18.50
2010,08,14,02,56,18.50
2010,08,14,02,57,18.50
2010,08,14,02,58,18.50
2010,08,14,02,59,18.50
2010,08,14,03,00,18.50
2010,08,14,03,01,18.50
2010,08,14,03,02,18.40
2010,08,14,03,03,18.30
2010,08,14,03,04,18.20
2010,08,14,03,05,18.20
2010,08,14,03,06,18.10
2010,08,14,03,07,18.10
2010,08,14,03,08,18.10
2010,08,14,03,09,18.20
2010,08,14,03,10,18.20
2010,08,14,03,11,18.20
2010,08,14,03,12,18.30
2010,08,14,03,13,18.40
2010,08,14,03,14,18.50
2010,08,14,03,15,18.60
2010,08,14,03,16,18.60
2010,08,14,03,17,18.70
2010,08,14,03,18,18.70
2010,08,14,03,19,18.80
2010,08,14,03,20,18.90
2010,08,14,03,21,19.00
2010,08,14,03,22,19.10
2010,08,14,03,23,19.30
2010,08,14,03,24,19.40
2010,08,14,03,25,19.60
2010,08,14,03,26,19.70
2010,08,14,03,27,19.80
2010,08,14,03,28,19.90
2010,08,14,03,29,20.20
2010,08,14,03,30,20.30
2010,08,14,03,31,20.40
2010,08,14,03,32,20.50
2010,08,14,03,33,20.70
2010,08,14,03,34,20.80
2010,08,14,03,35,20.90
2010,08,14,03,36,21.00
2010,08,14,03,37,21.20
2010,08,14,03,38,21.30
2010,08,14,03,39,21.30
2010,08,14,03,40,21.30
2010,08,14,03,41,21.20
2010,08,14,03,42,21.10
2010,08,14,03,43,20.90
2010,08,14,03,44,20.90
2010,08,14,03,45,20.90
2010,08,14,03,46,20.80
2010,08,14,03,47,20.80
2010,08,14,03,48,20.80
2010,08,14,03,49,20.80
2010,08,14,03,50,20.80
2010,08,14,03,51,20.70
2010,08,14,03,52,20.60
2010,08,14,03,53,20.50
2010,08,14,03,54,20.30
2010,08,14,03,55,20.10
2010,08,14,03,56,19.90
2010,08,14,03,57,19.70
2010,08,14,03,58,19.50
2010,08,14,03,59,19.40
2010,08,14,04,00,19.30
2010,08,14,04,01,19.20
2010,08,14,04,02,19.20
2010,08,14,04,03,19.10
2010,08,14,04,04,19.10
2010,08,14,04,05,19.10
2010,08,14,04,06,19.10
2010,08,14,04,07,19.10
2010,08,14,04,08,19.20
2010,08,14,04,09,19.20
2010,08,14,04,10,19.30
2010,08,14,04,11,19.30
2010,08,14,04,12,19.30
2010,08,14,04,13,19.30
2010,08,14,04,14,19.20
2010,08,14,04,15,19.20
2010,08,14,04,16,19.30
2010,08,14,04,17,19.30
2010,08,14,04,18,19.30
2010,08,14,04,19,19.30
2010,08,14,04,20,19.40
2010,08,14,04,21,19.40
2010,08,14,04,22,19.40
2010,08,14,04,23,19.50
2010,08,14,04,24,19.50
2010,08,14,04,25,19.60
2010,08,14,04,26,19.60
2010,08,14,04,27,19.60
2010,08,14,04,28,19.70
2010,08,14,04,29,19.70
2010,08,14,04,30,19.80
2010,08,14,04,31,19.80
2010,08,14,04,32,19.80
2010,08,14,04,33,19.90
2010,08,14,04,34,19.90
2010,08,14,04,35,19.80
2010,08,14,04,36,19.70
2010,08,14,04,37,19.70
2010,08,14,04,38,19.60
2010,08,14,04,39,19.50
2010,08,14,04,40,19.50
2010,08,14,04,41,19.50
2010,08,14,04,42,19.50
2010,08,14,04,43,19.50
2010,08,14,04,44,19.50
2010,08,14,04,45,19.50
2010,08,14,04,46,19.50
2010,08,14,04,47,19.50
2010,08,14,04,48,19.50
2010,08,14,04,49,19.50
2010,08,14,04,50,19.60
2010,08,14,04,51,19.70
2010,08,14,04,52,19.70
2010,08,14,04,53,19.80
2010,08,14,04,54,19.80
2010,08,14,04,55,19.90
2010,08,14,04,56,19.90
2010,08,14,04,57,19.90
2010,08,14,04,58,20.00
2010,08,14,04,59,20.10
2010,08,14,05,00,20.20
2010,08,14,05,01,20.20
2010,08,14,05,02,20.30
2010,08,14,05,03,20.50
2010,08,14,05,04,20.60
2010,08,14,05,05,20.70
2010,08,14,05,06,20.80
2010,08,14,05,07,20.90
2010,08,14,05,08,21.00
2010,08,14,05,09,21.00
2010,08,14,05,10,21.10
2010,08,14,05,11,21.20
2010,08,14,05,12,21.20
2010,08,14,05,13,21.20
2010,08,14,05,14,21.30
2010,08,14,05,15,21.30
2010,08,14,05,16,21.30
2010,08,14,05,17,21.30
2010,08,14,05,18,21.30
2010,08,14,05,19,21.30
2010,08,14,05,20,21.30
2010,08,14,05,21,21.20
2010,08,14,05,22,21.20
2010,08,14,05,23,21.30
2010,08,14,05,24,21.20
2010,08,14,05,25,21.20
2010,08,14,05,26,21.20
2010,08,14,05,27,21.20
2010,08,14,05,28,21.20
2010,08,14,05,29,21.20
2010,08,14,05,30,21.20
2010,08,14,05,31,21.20
2010,08,14,05,32,21.20
2010,08,14,05,33,21.10
2010,08,14,05,34,21.10
2010,08,14,05,35,21.10
2010,08,14,05,36,21.20
2010,08,14,05,37,21.30
2010,08,14,05,38,21.30
2010,08,14,05,39,21.30
2010,08,14,05,40,21.30
2010,08,14,05,41,21.30
2010,08,14,05,42,21.30
2010,08,14,05,43,21.30
2010,08,14,05,44,21.40
2010,08,14,05,45,21.40
2010,08,14,05,46,21.30
2010,08,14,05,47,21.40
2010,08,14,05,48,21.40
2010,08,14,05,49,21.40
2010,08,14,05,50,21.40
2010,08,14,05,51,21.40
2010,08,14,05,52,21.40
2010,08,14,05,53,21.50
2010,08,14,05,54,21.40
2010,08,14,05,55,21.40
2010,08,14,05,56,21.40
2010,08,14,05,57,21.50
2010,08,14,05,58,21.60
2010,08,14,05,59,21.60
2010,08,14,06,00,21.60
2010,08,14,06,01,21.60
2010,08,14,06,02,21.60
2010,08,14,06,03,21.60
2010,08,14,06,04,21.50
2010,08,14,06,05,21.40
2010,08,14,06,06,21.50
2010,08,14,06,07,21.60
2010,08,14,06,08,21.60
2010,08,14,06,09,21.60
2010,08,14,06,10,21.60
2010,08,14,06,11,21.60
2010,08,14,06,12,21.60
2010,08,14,06,13,21.60
2010,08,14,06,14,21.50
2010,08,14,06,15,21.40
2010,08,14,06,16,21.40
2010,08,14,06,17,21.40
2010,08,14,06,18,21.40
2010,08,14,06,19,21.40
2010,08,14,06,20,21.40
2010,08,14,06,21,21.40
2010,08,14,06,22,21.30
2010,08,14,06,23,21.30
2010,08,14,06,24,21.40
2010,08,14,06,25,21.40
2010,08,14,06,26,21.40
2010,08,14,06,27,21.50
2010,08,14,06,28,21.60
2010,08,14,06,29,21.70
2010,08,14,06,30,21.70
2010,08,14,06,31,21.70
2010,08,14,06,32,21.70
2010,08,14,06,33,21.70
2010,08,14,06,34,21.70
2010,08,14,06,35,21.70
2010,08,14,06,36,21.70
2010,08,14,06,37,21.80
2010,08,14,06,38,21.80
2010,08,14,06,39,21.90
2010,08,14,06,40,22.00
2010,08,14,06,41,22.00
2010,08,14,06,42,22.10
2010,08,14,06,43,22.10
2010,08,14,06,44,22.20
2010,08,14,06,45,22.30
2010,08,14,06,46,22.30
2010,08,14,06,47,22.40
2010,08,14,06,48,22.50
2010,08,14,06,49,22.60
2010,08,14,06,50,22.60
2010,08,14,06,51,22.60
2010,08,14,06,52,22.60
2010,08,14,06,53,22.70
2010,08,14,06,54,22.70
2010,08,14,06,55,22.80
2010,08,14,06,56,22.80
2010,08,14,06,57,22.90
2010,08,14,06,58,22.90
2010,08,14,06,59,22.90
2010,08,14,07,00,23.00
2010,08,14,07,01,23.10
2010,08,14,07,02,23.20
2010,08,14,07,03,23.30
2010,08,14,07,04,23.30
2010,08,14,07,05,23.30
2010,08,14,07,06,23.20
2010,08,14,07,07,23.20
2010,08,14,07,08,23.10
2010,08,14,07,09,23.10
2010,08,14,07,10,22.90
2010,08,14,07,11,22.90
2010,08,14,07,12,22.80
2010,08,14,07,13,22.70
2010,08,14,07,14,22.70
2010,08,14,07,15,22.70
2010,08,14,07,16,22.60
2010,08,14,07,17,22.60
2010,08,14,07,18,22.50
2010,08,14,07,19,22.50
2010,08,14,07,20,22.50
2010,08,14,07,21,22.40
2010,08,14,07,22,22.40
2010,08,14,07,23,22.30
2010,08,14,07,24,22.30
2010,08,14,07,25,22.30
2010,08,14,07,26,22.30
2010,08,14,07,27,22.30
2010,08,14,07,28,22.30
2010,08,14,07,29,22.30
2010,08,14,07,30,22.40
2010,08,14,07,31,22.40
2010,08,14,07,32,22.50
2010,08,14,07,33,22.50
2010,08,14,07,34,22.60
2010,08,14,07,35,22.60
2010,08,14,07,36,22.70
2010,08,14,07,37,22.90
2010,08,14,07,38,22.90
2010,08,14,07,39,22.90
2010,08,14,07,40,22.90
2010,08,14,07,41,22.90
2010,08,14,07,42,22.90
2010,08,14,07,43,22.90
2010,08,14,07,44,22.90
2010,08,14,07,45,22.90
2010,08,14,07,46,23.00
2010,08,14,07,47,23.10
2010,08,14,07,48,23.20
2010,08,14,07,49,23.30
2010,08,14,07,50,23.30
2010,08,14,07,51,23.30
2010,08,14,07,52,23.40
2010,08,14,07,53,23.50
2010,08,14,07,54,23.60
2010,08,14,07,55,23.70
2010,08,14,07,56,23.80
2010,08,14,07,57,23.90
2010,08,14,07,58,24.00
2010,08,14,07,59,24.10
2010,08,14,08,00,24.10
2010,08,14,08,01,24.20
2010,08,14,08,02,24.20
2010,08,14,08,03,24.20
2010,08,14,08,04,24.20
2010,08,14,08,05,24.20
2010,08,14,08,06,24.30
2010,08,14,08,07,24.30
2010,08,14,08,08,24.40
2010,08,14,08,09,24.50
2010,08,14,08,10,24.50
2010,08,14,08,11,24.60
2010,08,14,08,12,24.70
2010,08,14,08,13,24.70
2010,08,14,08,14,24.80
2010,08,14,08,15,24.80
2010,08,14,08,16,24.90
2010,08,14,08,17,25.00
2010,08,14,08,18,25.00
2010,08,14,08,19,25.10
2010,08,14,08,20,25.20
2010,08,14,08,21,25.20
2010,08,14,08,22,25.30
2010,08,14,08,23,25.40
2010,08,14,08,24,25.40
2010,08,14,08,25,25.50
2010,08,14,08,26,25.60
2010,08,14,08,27,25.80
2010,08,14,08,28,25.90
2010,08,14,08,29,26.00
2010,08,14,08,30,26.10
2010,08,14,08,31,26.20
2010,08,14,08,32,26.20
2010,08,14,08,33,26.30
2010,08,14,08,34,26.40
2010,08,14,08,35,26.30
2010,08,14,08,36,26.40
2010,08,14,08,37,26.40
2010,08,14,08,38,26.40
2010,08,14,08,39,26.30
2010,08,14,08,40,26.30
2010,08,14,08,41,26.30
2010,08,14,08,42,26.30
2010,08,14,08,43,26.30
2010,08,14,08,44,26.30
2010,08,14,08,45,26.40
2010,08,14,08,46,26.50
2010,08,14,08,47,26.60
2010,08,14,08,48,26.60
2010,08,14,08,49,26.60
2010,08,14,08,50,26.60
2010,08,14,08,51,26.60
2010,08,14,08,52,26.60
2010,08,14,08,53,26.60
2010,08,14,08,54,26.60
2010,08,14,08,55,26.60
2010,08,14,08,56,26.60
2010,08,14,08,57,26.60
2010,08,14,08,58,26.70
2010,08,14,08,59,26.70
2010,08,14,09,00,26.70
2010,08,14,09,01,26.70
2010,08,14,09,02,26.60
2010,08,14,09,03,26.60
2010,08,14,09,04,26.60
2010,08,14,09,05,26.70
2010,08,14,09,06,26.80
2010,08,14,09,07,26.80
2010,08,14,09,08,26.80
2010,08,14,09,09,26.80
2010,08,14,09,10,26.90
2010,08,14,09,11,27.00
2010,08,14,09,12,27.10
2010,08,14,09,13,27.00
2010,08,14,09,14,26.90
2010,08,14,09,15,26.90
2010,08,14,09,16,27.00
2010,08,14,09,17,27.10
2010,08,14,09,18,27.00
2010,08,14,09,19,26.90
2010,08,14,09,20,26.80
2010,08,14,09,21,26.90
2010,08,14,09,22,26.90
2010,08,14,09,23,26.90
2010,08,14,09,24,26.90
2010,08,14,09,25,26.90
2010,08,14,09,26,26.90
2010,08,14,09,27,27.00
2010,08,14,09,28,27.10
2010,08,14,09,29,27.10
2010,08,14,09,30,27.20
2010,08,14,09,31,27.10
2010,08,14,09,32,26.90
2010,08,14,09,33,27.00
2010,08,14,09,34,27.10
2010,08,14,09,35,27.10
2010,08,14,09,36,27.20
2010,08,14,09,37,27.30
2010,08,14,09,38,27.30
2010,08,14,09,39,27.30
2010,08,14,09,40,27.20
2010,08,14,09,41,27.20
2010,08,14,09,42,27.20
2010,08,14,09,43,27.10
2010,08,14,09,44,27.10
2010,08,14,09,45,27.00
2010,08,14,09,46,27.10
2010,08,14,09,47,27.10
2010,08,14,09,48,27.10
2010,08,14,09,49,27.20
2010,08,14,09,50,27.20
2010,08,14,09,51,27.20
2010,08,14,09,52,27.20
2010,08,14,09,53,27.30
2010,08,14,09,54,27.30
2010,08,14,09,55,27.30
2010,08,14,09,56,27.30
2010,08,14,09,57,27.30
2010,08,14,09,58,27.40
2010,08,14,09,59,27.60
2010,08,14,10,00,27.60
2010,08,14,10,01,27.60
2010,08,14,10,02,27.70
2010,08,14,10,03,27.90
2010,08,14,10,04,28.00
2010,08,14,10,05,28.00
2010,08,14,10,06,28.00
2010,08,14,10,07,28.00
2010,08,14,10,08,28.10
2010,08,14,10,09,28.10
2010,08,14,10,10,28.00
2010,08,14,10,11,28.10
2010,08,14,10,12,28.00
2010,08,14,10,13,27.80
2010,08,14,10,14,27.80
2010,08,14,10,15,27.80
2010,08,14,10,16,27.90
2010,08,14,10,17,28.00
2010,08,14,10,18,28.00
2010,08,14,10,19,28.10
2010,08,14,10,20,28.20
2010,08,14,10,21,28.30
2010,08,14,10,22,28.40
2010,08,14,10,23,28.60
2010,08,14,10,24,28.60
2010,08,14,10,25,28.60
2010,08,14,10,26,28.40
2010,08,14,10,27,28.20
2010,08,14,10,28,28.10
2010,08,14,10,29,28.10
2010,08,14,10,30,28.10
2010,08,14,10,31,28.10
2010,08,14,10,32,28.10
2010,08,14,10,33,28.10
2010,08,14,10,34,28.20
2010,08,14,10,35,28.30
2010,08,14,10,36,28.30
2010,08,14,10,37,28.30
2010,08,14,10,38,28.20
2010,08,14,10,39,28.20
2010,08,14,10,40,28.10
2010,08,14,10,41,28.20
2010,08,14,10,42,28.30
2010,08,14,10,43,28.30
2010,08,14,10,44,28.30
2010,08,14,10,45,28.30
2010,08,14,10,46,28.30
2010,08,14,10,47,28.30
2010,08,14,10,48,28.30
2010,08,14,10,49,28.40
2010,08,14,10,50,28.40
2010,08,14,10,51,28.40
2010,08,14,10,52,28.40
2010,08,14,10,53,28.40
2010,08,14,10,54,28.30
2010,08,14,10,55,28.10
2010,08,14,10,56,28.00
2010,08,14,10,57,27.90
2010,08,14,10,58,27.90
2010,08,14,10,59,28.00
2010,08,14,11,00,28.20
2010,08,14,11,01,28.30
2010,08,14,11,02,28.30
2010,08,14,11,03,28.20
2010,08,14,11,04,28.20
2010,08,14,11,05,28.30
2010,08,14,11,06,28.40
2010,08,14,11,07,28.40
2010,08,14,11,08,28.40
2010,08,14,11,09,28.40
2010,08,14,11,10,28.40
2010,08,14,11,11,28.40
2010,08,14,11,12,28.50
2010,08,14,11,13,28.50
2010,08,14,11,14,28.40
2010,08,14,11,15,28.40
2010,08,14,11,16,28.30
2010,08,14,11,17,28.30
2010,08,14,11,18,28.20
2010,08,14,11,19,28.20
2010,08,14,11,20,28.40
2010,08,14,11,21,28.40
2010,08,14,11,22,28.60
2010,08,14,11,23,28.70
2010,08,14,11,24,28.80
2010,08,14,11,25,28.80
2010,08,14,11,26,28.60
2010,08,14,11,27,28.60
2010,08,14,11,28,28.60
2010,08,14,11,29,28.60
2010,08,14,11,30,28.60
2010,08,14,11,31,28.60
2010,08,14,11,32,28.60
2010,08,14,11,33,28.60
2010,08,14,11,34,28.80
2010,08,14,11,35,28.90
2010,08,14,11,36,28.90
2010,08,14,11,37,28.90
2010,08,14,11,38,29.00
2010,08,14,11,39,29.10
2010,08,14,11,40,29.20
2010,08,14,11,41,29.00
2010,08,14,11,42,28.90
2010,08,14,11,43,29.00
2010,08,14,11,44,28.90
2010,08,14,11,45,28.90
2010,08,14,11,46,28.90
2010,08,14,11,47,29.10
2010,08,14,11,48,29.10
2010,08,14,11,49,29.20
2010,08,14,11,50,29.10
2010,08,14,11,51,29.00
2010,08,14,11,52,29.00
2010,08,14,11,53,29.20
2010,08,14,11,54,29.30
2010,08,14,11,55,29.40
2010,08,14,11,56,29.40
2010,08,14,11,57,29.40
2010,08,14,11,58,29.40
2010,08,14,11,59,29.40
2010,08,14,12,00,29.40
2010,08,14,12,01,29.30
2010,08,14,12,02,29.20
2010,08,14,12,03,29.20
2010,08,14,12,04,29.20
2010,08,14,12,05,29.30
2010,08,14,12,06,29.20
2010,08,14,12,07,29.10
2010,08,14,12,08,29.20
2010,08,14,12,09,29.10
2010,08,14,12,10,29.20
2010,08,14,12,11,29.30
2010,08,14,12,12,29.30
2010,08,14,12,13,29.30
2010,08,14,12,14,29.40
2010,08,14,12,15,29.60
2010,08,14,12,16,29.60
2010,08,14,12,17,29.60
2010,08,14,12,18,29.70
2010,08,14,12,19,29.70
2010,08,14,12,20,29.70
2010,08,14,12,21,29.80
2010,08,14,12,22,29.80
2010,08,14,12,23,29.90
2010,08,14,12,24,29.90
2010,08,14,12,25,29.70
2010,08,14,12,26,29.40
2010,08,14,12,27,29.30
2010,08,14,12,28,29.30
2010,08,14,12,29,29.40
2010,08,14,12,30,29.60
2010,08,14,12,31,29.50
2010,08,14,12,32,29.30
2010,08,14,12,33,29.20
2010,08,14,12,34,29.20
2010,08,14,12,35,29.20
2010,08,14,12,36,29.40
2010,08,14,12,37,29.50
2010,08,14,12,38,29.50
2010,08,14,12,39,29.50
2010,08,14,12,40,29.60
2010,08,14,12,41,29.50
2010,08,14,12,42,29.60
2010,08,14,12,43,29.70
2010,08,14,12,44,29.80
2010,08,14,12,45,30.00
2010,08,14,12,46,30.00
2010,08,14,12,47,29.90
2010,08,14,12,48,29.90
2010,08,14,12,49,30.10
2010,08,14,12,50,30.30
2010,08,14,12,51,30.30
2010,08,14,12,52,30.40
2010,08,14,12,53,30.60
2010,08,14,12,54,30.70
2010,08,14,12,55,30.80
2010,08,14,12,56,30.70
2010,08,14,12,57,30.40
2010,08,14,12,58,30.40
2010,08,14,12,59,30.40
2010,08,14,13,00,30.30
2010,08,14,13,01,30.30
2010,08,14,13,02,30.20
2010,08,14,13,03,30.20
2010,08,14,13,04,30.30
2010,08,14,13,05,30.40
2010,08,14,13,06,30.50
2010,08,14,13,07,30.40
2010,08,14,13,08,30.40
2010,08,14,13,09,30.30
2010,08,14,13,10,30.20
2010,08,14,13,11,30.20
2010,08,14,13,12,30.20
2010,08,14,13,13,30.20
2010,08,14,13,14,30.20
2010,08,14,13,15,30.30
2010,08,14,13,16,30.30
2010,08,14,13,17,30.40
2010,08,14,13,18,30.60
2010,08,14,13,19,30.60
2010,08,14,13,20,30.70
2010,08,14,13,21,30.80
2010,08,14,13,22,30.80
2010,08,14,13,23,30.80
2010,08,14,13,24,30.80
2010,08,14,13,25,30.90
2010,08,14,13,26,30.80
2010,08,14,13,27,30.90
2010,08,14,13,28,31.00
2010,08,14,13,29,31.00
2010,08,14,13,30,31.00
2010,08,14,13,31,31.00
2010,08,14,13,32,31.00
2010,08,14,13,33,31.10
2010,08,14,13,34,30.90
2010,08,14,13,35,30.90
2010,08,14,13,36,30.80
2010,08,14,13,37,30.80
2010,08,14,13,38,30.90
2010,08,14,13,39,31.10
2010,08,14,13,40,31.20
2010,08,14,13,41,31.10
2010,08,14,13,42,31.00
2010,08,14,13,43,31.00
2010,08,14,13,44,31.00
2010,08,14,13,45,31.10
2010,08,14,13,46,31.00
2010,08,14,13,47,31.00
2010,08,14,13,48,31.10
2010,08,14,13,49,31.30
2010,08,14,13,50,31.40
2010,08,14,13,51,31.60
2010,08,14,13,52,31.80
2010,08,14,13,53,31.80
2010,08,14,13,54,31.80
2010,08,14,13,55,31.80
2010,08,14,13,56,31.50
2010,08,14,13,57,31.40
2010,08,14,13,58,31.40
2010,08,14,13,59,31.40
2010,08,14,14,00,31.30
2010,08,14,14,01,31.20
2010,08,14,14,02,31.20
2010,08,14,14,03,31.30
2010,08,14,14,04,31.30
2010,08,14,14,05,31.30
2010,08,14,14,06,31.40
2010,08,14,14,07,31.50
2010,08,14,14,08,31.70
2010,08,14,14,09,31.70
2010,08,14,14,10,31.70
2010,08,14,14,11,31.70
2010,08,14,14,12,31.70
2010,08,14,14,13,31.60
2010,08,14,14,14,31.40
2010,08,14,14,15,31.40
2010,08,14,14,16,31.40
2010,08,14,14,17,31.40
2010,08,14,14,18,31.40
2010,08,14,14,19,31.50
2010,08,14,14,20,31.60
2010,08,14,14,21,31.70
2010,08,14,14,22,31.90
2010,08,14,14,23,31.90
2010,08,14,14,24,31.90
2010,08,14,14,25,31.90
2010,08,14,14,26,32.00
2010,08,14,14,27,32.10
2010,08,14,14,28,32.10
2010,08,14,14,29,32.10
2010,08,14,14,30,32.20
2010,08,14,14,31,32.30
2010,08,14,14,32,32.40
2010,08,14,14,33,32.50
2010,08,14,14,34,32.60
2010,08,14,14,35,32.60
2010,08,14,14,36,32.50
2010,08,14,14,37,32.30
2010,08,14,14,38,32.20
2010,08,14,14,39,32.10
2010,08,14,14,40,32.10
2010,08,14,14,41,32.20
2010,08,14,14,42,32.30
2010,08,14,14,43,32.30
2010,08,14,14,44,32.20
2010,08,14,14,45,32.10
2010,08,14,14,46,32.00
2010,08,14,14,47,31.80
2010,08,14,14,48,31.80
2010,08,14,14,49,31.80
2010,08,14,14,50,31.90
2010,08,14,14,51,31.90
2010,08,14,14,52,31.90
2010,08,14,14,53,31.90
2010,08,14,14,54,31.80
2010,08,14,14,55,31.80
2010,08,14,14,56,31.80
2010,08,14,14,57,31.90
2010,08,14,14,58,31.90
2010,08,14,14,59,31.80
2010,08,14,15,00,31.90
2010,08,14,15,01,31.90
2010,08,14,15,02,32.00
2010,08,14,15,03,31.90
2010,08,14,15,04,31.80
2010,08,14,15,05,31.80
2010,08,14,15,06,31.80
2010,08,14,15,07,31.80
2010,08,14,15,08,31.90
2010,08,14,15,09,32.00
2010,08,14,15,10,32.20
2010,08,14,15,11,32.20
2010,08,14,15,12,32.30
2010,08,14,15,13,32.40
2010,08,14,15,14,32.50
2010,08,14,15,15,32.50
2010,08,14,15,16,32.50
2010,08,14,15,17,32.50
2010,08,14,15,18,32.50
2010,08,14,15,19,32.40
2010,08,14,15,20,32.40
2010,08,14,15,21,32.60
2010,08,14,15,22,32.60
2010,08,14,15,23,32.60
2010,08,14,15,24,32.50
2010,08,14,15,25,32.40
2010,08,14,15,26,32.40
2010,08,14,15,27,32.40
2010,08,14,15,28,32.50
2010,08,14,15,29,32.50
2010,08,14,15,30,32.50
2010,08,14,15,31,32.50
2010,08,14,15,32,32.40
2010,08,14,15,33,32.30
2010,08,14,15,34,32.20
2010,08,14,15,35,32.20
2010,08,14,15,36,32.40
2010,08,14,15,37,32.40
2010,08,14,15,38,32.40
2010,08,14,15,39,32.30
2010,08,14,15,40,32.10
2010,08,14,15,41,31.90
2010,08,14,15,42,31.90
2010,08,14,15,43,32.00
2010,08,14,15,44,32.10
2010,08,14,15,45,32.30
2010,08,14,15,46,32.30
2010,08,14,15,47,32.30
2010,08,14,15,48,32.40
2010,08,14,15,49,32.50
2010,08,14,15,50,32.60
2010,08,14,15,51,32.50
2010,08,14,15,52,32.30
2010,08,14,15,53,32.20
2010,08,14,15,54,32.20
2010,08,14,15,55,32.30
2010,08,14,15,56,32.30
2010,08,14,15,57,32.40
2010,08,14,15,58,32.40
2010,08,14,15,59,32.40
2010,08,14,16,00,32.40
2010,08,14,16,01,32.40
2010,08,14,16,02,32.40
2010,08,14,16,03,32.30
2010,08,14,16,04,32.30
2010,08,14,16,05,32.40
2010,08,14,16,06,32.50
2010,08,14,16,07,32.70
2010,08,14,16,08,33.00
2010,08,14,16,09,33.10
2010,08,14,16,10,33.20
2010,08,14,16,11,33.10
2010,08,14,16,12,33.10
2010,08,14,16,13,33.00
2010,08,14,16,14,33.00
2010,08,14,16,15,33.10
2010,08,14,16,16,33.10
2010,08,14,16,17,32.90
2010,08,14,16,18,32.70
2010,08,14,16,19,32.60
2010,08,14,16,20,32.50
2010,08,14,16,21,32.40
2010,08,14,16,22,32.40
2010,08,14,16,23,32.40
2010,08,14,16,24,32.40
2010,08,14,16,25,32.50
2010,08,14,16,26,32.60
2010,08,14,16,27,32.60
2010,08,14,16,28,32.80
2010,08,14,16,29,32.60
2010,08,14,16,30,32.80
2010,08,14,16,31,32.70
2010,08,14,16,32,32.60
2010,08,14,16,33,32.60
2010,08,14,16,34,32.60
2010,08,14,16,35,32.60
2010,08,14,16,36,32.60
2010,08,14,16,37,32.70
2010,08,14,16,38,32.80
2010,08,14,16,39,32.70
2010,08,14,16,40,32.60
2010,08,14,16,41,32.80
2010,08,14,16,42,32.80
2010,08,14,16,43,32.80
2010,08,14,16,44,32.80
2010,08,14,16,45,32.60
2010,08,14,16,46,32.60
2010,08,14,16,47,32.60
2010,08,14,16,48,32.60
2010,08,14,16,49,32.60
2010,08,14,16,50,32.60
2010,08,14,16,51,32.50
2010,08,14,16,52,32.30
2010,08,14,16,53,32.30
2010,08,14,16,54,32.30
2010,08,14,16,55,32.30
2010,08,14,16,56,32.30
2010,08,14,16,57,32.40
2010,08,14,16,58,32.40
2010,08,14,16,59,32.50
2010,08,14,17,00,32.60
2010,08,14,17,01,32.80
2010,08,14,17,02,32.80
2010,08,14,17,03,32.60
2010,08,14,17,04,32.60
2010,08,14,17,05,32.60
2010,08,14,17,06,32.50
2010,08,14,17,07,32.50
2010,08,14,17,08,32.50
2010,08,14,17,09,32.60
2010,08,14,17,10,32.60
2010,08,14,17,11,32.80
2010,08,14,17,12,32.80
2010,08,14,17,13,32.90
2010,08,14,17,14,32.90
2010,08,14,17,15,32.90
2010,08,14,17,16,32.80
2010,08,14,17,17,32.80
2010,08,14,17,18,32.90
2010,08,14,17,19,32.90